Theta_e
306 306 307 307 307 306 305 305 305 306 307 307 307 307 307 306 304 308 316 316 317 321 321 321 322 325 327 328 331 330 328 328 327 327 329 329 329 330 332 333 336 337 333 333 333 336 341 334 336 341 340 337 336 336
306 306 306 307 307 307 306 305 304 305 306 307 308 307 307 304 305 308 316 315 315 318 321 319 318 319 320 321 323 327 329 329 331 328 328 329 330 332 334 338 334 339 334 338 340 338 333 332 332 331 332 331 330 330
305 306 306 306 307 307 307 307 305 306 306 306 307 307 306 305 306 308 313 315 315 317 317 318 319 318 319 320 320 325 328 327 329 329 334 333 339 334 334 334 334 335 332 336 336 333 332 330 329 328 329 329 329 328
305 306 306 306 306 307 307 306 306 307 306 306 306 306 305 306 308 309 313 314 315 318 321 319 318 318 319 319 319 321 324 324 326 328 331 331 333 331 331 332 331 331 333 335 337 334 333 332 329 327 327 328 327 327
305 305 306 306 306 306 306 305 305 306 306 306 306 305 305 308 309 310 313 314 316 319 325 321 318 317 318 318 319 320 322 324 326 327 328 329 329 329 328 329 328 329 331 333 333 330 331 330 327 326 327 327 326 326
305 305 305 306 307 306 306 306 306 306 307 307 306 305 307 308 309 313 319 315 315 319 320 324 319 319 319 318 318 320 321 323 324 326 328 327 325 326 327 330 327 327 327 326 327 326 326 325 325 324 324 324 325 324
305 305 305 306 306 307 308 308 307 306 307 308 308 308 309 309 311 314 317 314 311 317 322 323 322 319 319 319 319 320 321 322 322 324 324 324 322 322 330 329 326 326 325 324 324 324 325 324 324 324 324 323 323 323
305 306 306 306 306 307 308 309 308 307 308 308 310 310 310 310 312 314 315 311 311 318 321 325 321 320 320 320 321 319 320 322 324 323 322 322 321 328 331 328 327 326 326 326 325 324 324 324 324 325 324 325 325 325
306 306 307 307 307 307 308 308 307 307 308 309 309 309 312 314 317 314 310 310 315 317 320 323 322 321 320 320 321 321 320 322 323 322 323 326 329 330 327 326 325 325 325 325 324 324 324 324 325 325 325 325 325 325
307 307 308 308 308 308 308 308 307 308 309 309 310 316 320 313 310 315 317 318 321 319 319 322 320 320 322 321 322 323 321 324 323 324 325 327 328 325 326 326 325 324 323 323 324 324 323 323 323 324 324 324 324 325
307 308 308 308 308 308 308 308 309 310 312 315 316 318 315 314 318 319 319 319 321 320 320 320 321 321 321 324 326 324 323 323 322 324 327 327 327 326 324 324 324 323 322 322 322 323 322 323 323 324 324 323 323 322
308 309 308 308 307 307 307 307 309 314 313 311 311 316 317 318 319 320 320 320 320 321 320 321 320 320 321 322 323 324 324 326 325 326 326 329 326 324 325 325 324 323 322 322 322 322 322 322 321 322 321 321 320 320
309 309 309 309 308 307 307 307 307 309 312 317 318 318 318 319 322 321 321 322 322 321 320 320 320 320 321 322 322 327 324 324 326 329 326 325 325 326 327 326 326 322 321 322 322 321 321 320 320 319 320 318 316 316
310 311 311 311 309 308 308 308 310 313 314 320 318 318 319 319 319 319 319 321 317 318 319 318 320 321 322 323 323 326 327 327 327 328 328 329 328 327 327 326 326 323 323 323 323 321 319 319 318 318 317 315 314 315
312 313 313 312 310 310 312 314 314 315 316 318 318 317 316 314 315 315 316 318 317 318 319 321 324 325 323 324 324 326 326 326 327 328 329 329 327 327 327 326 325 325 324 323 323 321 319 318 317 318 316 315 314 314
315 316 314 313 313 313 314 316 316 316 316 316 315 317 314 316 316 316 316 318 318 319 319 321 322 325 326 325 325 326 325 327 327 325 324 325 327 327 328 327 325 324 324 323 323 321 320 319 317 316 315 314 314 314
318 319 316 313 316 316 316 316 316 315 315 315 316 314 314 315 315 315 316 317 317 321 322 322 324 324 324 324 324 324 327 326 325 324 325 328 328 329 328 326 325 324 322 323 322 321 320 319 316 316 316 315 314 313
320 319 316 314 319 319 320 317 317 317 318 316 319 318 317 316 317 318 317 317 320 320 320 321 321 323 326 326 327 326 325 325 325 325 326 326 327 327 326 325 323 323 321 321 321 320 320 318 316 315 314 313 312 311
317 316 316 317 319 321 322 322 322 324 323 323 323 322 322 321 320 319 320 320 319 318 320 323 325 326 326 326 327 326 327 328 327 329 330 326 325 325 323 323 321 322 322 321 321 320 319 317 316 314 313 312 312 310
320 319 319 320 320 325 323 324 324 326 325 325 328 324 325 326 325 325 324 325 327 327 324 324 328 327 328 328 328 329 329 330 330 328 328 329 324 323 320 317 320 319 321 319 320 319 318 317 317 316 313 312 311 311
321 322 322 323 325 323 324 325 324 324 327 327 328 326 328 327 328 330 332 326 325 329 328 328 328 330 324 325 324 325 326 326 330 329 327 324 322 321 321 320 318 317 319 318 319 319 318 317 316 315 314 312 311 309
324 321 325 325 325 325 324 323 324 325 328 327 326 325 327 328 332 327 326 326 329 329 329 329 329 329 329 328 325 322 323 323 320 321 321 321 325 322 319 317 317 315 317 317 318 317 317 316 314 314 313 313 312 310
322 323 327 327 327 323 323 324 329 328 328 325 327 329 327 325 325 324 326 328 327 326 324 324 324 324 324 322 323 320 317 317 319 318 318 318 316 317 316 316 315 316 316 315 316 315 315 313 314 313 312 311 312 311
323 327 330 329 327 325 326 329 328 328 326 328 328 326 326 329 325 326 326 325 325 322 323 324 322 323 322 321 319 319 318 318 319 316 317 315 314 314 314 313 313 314 313 311 313 314 314 314 313 313 311 309 310 310
326 326 327 321 327 328 328 330 328 329 327 325 327 325 326 327 326 324 324 323 322 320 318 322 322 323 325 322 319 318 315 314 316 315 314 314 313 313 312 312 311 312 310 311 310 310 309 309 309 310 310 309 309 309
324 329 329 329 328 330 327 328 329 328 329 328 326 323 323 322 321 322 323 323 321 318 322 322 322 323 324 318 319 316 315 313 313 314 313 312 312 312 312 312 311 311 310 310 309 309 309 308 309 309 309 309 308 308
327 332 329 328 330 327 328 327 328 328 328 327 324 325 322 320 322 321 320 318 318 318 317 319 320 320 319 318 317 315 314 314 314 313 313 313 312 311 311 311 310 310 310 310 309 308 308 309 309 309 309 309 308 308
331 331 331 330 328 327 330 330 330 327 326 323 323 321 321 320 320 320 320 317 317 317 315 314 317 318 319 318 317 317 316 314 313 313 313 313 312 311 311 311 311 309 310 309 309 309 309 309 309 308 308 308 307 307
330 331 332 330 329 331 330 331 328 327 323 323 322 321 320 319 317 317 316 316 316 315 314 313 315 317 318 317 317 316 315 315 314 314 314 314 313 312 311 311 311 310 310 310 308 308 309 309 308 308 308 308 308 307
330 330 333 331 329 331 330 326 326 325 322 320 320 320 319 318 316 314 314 314 314 314 313 312 315 316 316 316 316 314 314 315 314 314 314 312 312 312 311 311 311 311 310 310 310 311 310 310 308 308 308 308 308 307
328 331 333 332 331 328 326 325 324 324 324 324 320 321 320 318 318 316 314 313 313 313 313 312 315 316 315 315 314 313 313 313 312 312 310 310 310 311 311 311 311 310 310 310 310 310 310 310 309 309 308 307 307 306
330 332 333 332 331 327 325 326 325 324 324 324 323 320 319 319 319 318 316 314 313 313 311 313 315 316 315 314 313 313 311 313 312 311 309 309 308 308 308 310 310 310 310 309 309 309 310 310 309 309 309 307 306 305
333 332 333 332 329 329 326 326 326 325 324 325 325 322 320 318 318 317 314 313 312 312 312 312 315 315 316 314 314 313 312 312 309 308 308 308 308 308 309 310 309 309 308 308 308 307 309 309 308 307 306 305 305 304
Wind_Speed
17 17 18 18 18 16 12 13 14 13 12 11 11 11 13 13 13 12 9 4 8 7 8 9 10 8 12 11 7 15 10 9 9 13 12 11 11 13 13 6 18 11 10 9 10 12 6 14 3 6 8 11 12 13
18 18 18 17 16 16 14 14 13 11 11 11 12 13 14 13 11 10 7 6 6 7 10 14 8 8 6 8 9 11 8 2 5 7 10 9 10 1 7 3 6 5 8 4 8 8 12 17 16 14 14 11 12 12
17 18 18 17 16 15 15 14 13 12 11 12 12 13 13 11 9 8 9 10 10 7 10 12 8 2 6 6 7 6 6 9 4 4 5 4 8 5 2 8 3 14 3 10 10 13 14 14 14 13 11 11 12 12
18 18 18 18 16 15 15 14 14 14 13 13 12 11 10 9 7 8 9 14 9 7 5 4 6 3 5 3 6 11 7 6 6 5 4 2 4 6 9 7 13 10 11 10 18 15 5 14 11 9 11 11 11 12
18 18 17 17 16 15 14 14 14 13 12 12 11 10 8 6 7 10 13 15 3 5 3 4 17 11 4 3 4 6 4 5 4 1 1 4 6 5 6 4 13 14 14 12 9 10 9 10 11 10 10 12 13 13
18 18 17 16 15 14 14 14 14 13 13 11 9 7 5 6 8 8 2 7 5 7 2 2 5 5 7 4 4 5 6 4 4 3 6 6 7 6 2 10 15 15 15 14 9 11 11 12 13 15 15 14 14 15
18 18 17 16 13 12 13 14 14 13 12 8 6 5 4 6 8 6 4 5 6 4 3 2 1 2 1 4 5 5 7 3 2 4 4 4 2 3 12 11 14 14 11 11 14 11 11 14 13 15 15 18 20 21
18 18 17 15 12 11 13 15 14 12 9 5 6 8 8 7 8 6 4 2 2 4 5 3 3 7 4 6 4 4 4 4 6 4 1 6 4 5 6 15 16 15 16 15 15 15 16 17 18 18 24 23 20 18
18 17 15 14 11 10 13 16 12 11 6 6 8 9 6 4 2 3 5 6 4 2 2 4 1 4 1 6 5 4 5 6 2 4 4 4 6 6 5 9 11 10 10 13 14 15 16 16 17 18 19 19 19 19
16 13 11 12 12 12 13 11 11 8 4 6 4 4 3 4 3 6 2 2 6 4 3 2 4 4 5 5 5 4 5 4 9 5 2 6 9 8 10 12 10 9 12 13 12 13 14 15 15 15 16 16 16 17
13 8 10 14 14 11 11 10 7 6 3 4 4 1 8 5 7 2 2 0 3 2 3 4 6 2 5 5 3 3 2 3 4 3 2 3 2 7 7 6 5 6 7 9 9 12 15 15 15 16 18 21 22 23
12 10 10 12 14 11 10 9 7 4 4 4 6 5 2 2 1 1 1 1 2 3 2 3 5 4 3 4 1 3 4 2 3 4 3 3 4 3 5 6 5 7 9 7 12 12 15 16 20 21 23 23 24 26
11 10 10 13 15 11 10 9 6 5 5 5 4 3 2 2 6 5 6 4 3 1 1 2 3 3 2 1 2 5 3 2 4 4 3 4 3 5 6 6 8 4 5 13 12 14 16 18 22 26 24 26 29 28
9 8 11 15 17 10 9 7 6 6 3 2 2 6 5 6 6 4 4 4 4 3 6 6 1 2 3 3 3 1 3 2 4 3 2 4 3 4 4 5 8 9 11 9 11 15 18 21 25 26 27 27 26 24
9 7 11 17 13 8 7 9 8 6 6 5 5 4 4 2 2 5 5 4 5 5 4 2 3 3 2 2 3 3 2 3 5 3 3 4 4 5 6 7 9 10 10 10 11 12 15 20 24 24 26 25 25 25
9 8 7 18 10 8 2 6 7 7 4 3 5 1 3 2 4 4 6 4 5 5 3 2 3 2 5 4 5 6 3 3 3 3 4 4 6 6 6 7 9 11 11 11 12 13 14 17 20 22 28 27 28 28
7 4 16 11 8 5 9 5 4 4 3 3 2 1 2 2 2 3 3 4 8 5 4 3 4 6 3 3 2 2 2 3 3 4 5 7 6 6 6 7 7 8 7 9 10 13 15 15 21 23 23 30 28 29
7 10 16 8 7 4 5 5 3 3 4 2 2 2 1 1 3 0 2 2 3 2 1 3 0 3 3 3 3 2 2 2 4 4 4 4 5 3 4 7 8 12 10 10 14 15 14 15 16 15 22 26 27 28
9 12 12 6 6 4 3 3 3 3 3 3 4 4 2 2 3 3 4 4 3 3 3 2 2 3 3 3 4 3 2 2 2 2 1 6 3 3 4 10 10 8 8 12 14 15 15 13 15 17 19 24 24 26
9 8 8 7 7 4 2 3 2 1 2 3 2 6 5 3 3 3 4 4 4 2 4 4 3 2 2 2 1 3 2 4 4 4 4 3 5 14 17 15 14 19 10 15 14 16 16 16 13 12 13 16 20 24
7 5 6 4 2 5 3 3 2 1 1 2 3 3 2 4 4 4 5 3 6 3 3 4 4 3 9 9 5 6 7 10 5 3 5 6 14 16 6 9 7 12 11 11 12 12 13 14 17 18 15 15 17 24
6 10 3 2 3 0 1 3 3 2 0 1 1 3 2 2 5 6 7 6 3 4 3 3 4 6 7 5 5 8 8 10 3 4 9 3 3 5 6 11 11 4 10 15 12 12 13 14 14 16 16 16 16 17
8 4 4 3 2 2 3 3 3 4 1 1 2 3 2 3 3 2 3 3 2 1 5 7 9 5 4 2 8 14 15 14 12 11 12 6 5 5 5 5 9 14 15 13 13 13 12 13 10 12 14 14 14 17
4 4 3 3 4 2 2 3 1 1 1 1 1 1 2 3 2 3 3 1 3 4 6 10 11 5 7 9 6 7 6 4 5 9 6 5 6 10 12 12 13 14 12 13 9 8 6 8 10 7 13 19 19 20
3 4 3 4 3 3 4 3 2 2 1 2 3 2 1 3 2 3 2 2 3 4 6 9 8 6 5 1 8 7 9 14 7 7 10 12 12 13 14 14 13 13 16 15 16 17 17 17 17 9 9 15 15 15
1 5 3 3 2 2 0 0 1 1 2 1 1 1 2 0 3 2 2 3 2 5 10 6 3 4 1 8 8 9 11 11 12 9 10 12 12 11 10 9 11 12 14 14 13 15 15 17 16 17 17 17 20 21
3 4 5 1 4 2 2 2 3 3 1 3 3 5 4 3 4 2 3 2 4 6 7 3 2 7 1 6 9 9 11 14 9 11 10 8 9 10 10 8 8 9 6 11 12 14 13 16 19 18 16 16 19 19
2 4 3 3 3 1 0 2 2 1 2 2 2 3 3 4 4 3 5 3 1 5 7 7 4 1 7 1 5 9 12 12 11 12 10 8 10 10 11 10 5 3 3 1 7 11 13 11 16 18 19 15 15 16
4 5 4 4 2 3 1 0 1 2 0 3 2 3 3 3 2 3 4 2 3 2 4 6 7 4 10 7 2 6 6 7 7 7 9 8 12 12 12 12 13 12 12 7 3 5 9 9 11 13 18 17 18 17
1 2 3 4 1 2 2 3 2 3 2 4 4 3 4 5 8 3 1 3 3 4 4 6 7 6 7 7 7 10 6 10 14 12 8 10 15 15 15 16 20 16 14 14 15 10 11 16 15 16 18 15 16 17
3 3 3 1 1 2 3 4 0 2 2 6 2 2 5 3 8 8 5 2 4 4 5 7 8 7 8 11 9 7 10 9 8 8 11 14 16 14 14 14 18 18 18 20 18 13 14 15 13 14 15 14 18 19
3 5 3 3 3 2 2 2 2 0 2 5 5 4 4 4 2 5 6 3 4 3 5 3 7 7 7 7 7 6 6 9 9 10 11 14 14 12 12 13 15 16 17 17 19 17 17 16 15 14 17 18 17 18
4 4 4 4 3 4 3 4 4 2 3 5 9 6 1 2 2 3 5 2 3 5 5 3 3 3 1 2 5 7 8 5 5 8 11 11 10 12 11 12 13 16 18 17 17 16 15 14 14 16 17 18 16 17
Wind_Direction
345 345 346 347 349 347 343 343 337 337 340 346 347 341 335 338 340 344 299 277 292 299 312 334 354 347 340 359 338 322 177 230 203 228 237 227 235 219 227 213 205 200 237 249 278 238 104 329 356 51 97 65 42 31
344 342 343 344 347 348 343 342 341 342 339 336 336 334 333 334 337 336 287 321 274 267 308 301 299 289 293 308 312 318 291 210 15 218 234 245 246 199 256 107 233 58 9 81 34 98 81 60 67 49 63 59 33 25
341 341 342 343 344 344 342 341 340 338 334 329 328 326 329 330 330 327 299 303 278 255 253 252 216 210 286 274 294 298 343 356 24 335 302 338 64 348 223 79 0 113 274 121 117 110 95 75 56 40 50 40 21 14
340 340 341 341 341 342 340 338 334 330 329 328 327 326 327 326 323 317 295 296 293 311 288 111 132 204 288 14 306 307 309 277 283 299 323 345 71 16 46 79 56 40 34 61 92 34 65 64 39 22 32 16 4 360
341 339 337 339 339 339 340 341 339 338 334 331 330 328 329 337 332 316 292 287 342 340 305 288 309 191 135 21 334 304 321 315 302 190 315 36 49 16 64 18 50 43 30 35 65 36 13 12 343 19 6 352 344 345
338 336 336 336 334 337 340 342 342 341 337 334 332 330 331 321 325 315 317 83 24 340 317 6 299 52 90 96 95 48 14 352 313 326 69 62 21 345 59 85 65 62 38 23 20 22 350 337 345 355 345 334 333 331
335 333 332 332 331 335 340 344 343 343 340 338 337 339 328 308 313 281 352 347 355 51 35 271 267 113 302 115 96 85 53 3 297 54 42 87 76 310 61 64 39 43 33 13 19 2 346 346 337 335 325 327 324 318
336 334 331 327 323 325 333 337 338 340 335 318 319 317 305 295 285 267 204 288 130 131 231 258 179 153 250 162 115 113 107 50 7 66 164 89 166 48 56 24 27 27 13 12 358 345 337 334 333 334 331 329 324 317
339 338 335 331 328 327 328 332 334 334 318 298 311 312 302 238 250 65 279 276 189 127 15 328 72 125 312 97 110 99 95 99 301 82 79 333 61 56 23 15 18 10 0 352 346 343 346 338 333 331 328 322 317 315
343 350 8 0 343 330 331 336 334 325 285 292 290 235 243 48 332 325 357 269 195 155 62 285 257 131 334 188 121 138 136 146 113 83 99 85 88 53 35 37 27 4 3 356 348 350 343 337 335 327 324 327 327 321
347 355 353 357 355 349 346 345 343 326 298 235 215 296 85 46 27 82 237 296 285 81 46 338 13 52 7 27 46 358 146 99 114 153 114 93 60 59 28 19 356 355 5 348 357 346 354 337 332 332 325 320 313 310
353 353 353 357 359 357 358 358 344 1 5 336 312 285 7 78 186 238 243 172 22 61 61 28 42 358 50 312 10 338 91 101 117 109 120 85 109 60 353 3 2 315 326 338 359 357 348 336 336 333 328 325 323 322
357 0 7 8 5 359 360 359 356 339 316 271 239 314 23 296 34 30 27 18 56 33 78 43 91 2 308 328 36 13 77 96 74 40 82 75 103 25 9 344 309 294 10 39 347 354 0 347 355 347 342 339 331 321
356 2 12 7 1 355 3 13 18 349 290 241 7 27 3 23 27 13 358 7 24 333 32 335 100 14 39 13 8 286 45 133 107 73 100 105 53 5 4 354 310 359 20 13 339 2 7 1 354 354 354 342 329 323
357 345 6 356 351 1 52 55 27 359 1 20 35 40 30 321 302 332 328 23 23 10 314 359 13 53 26 42 10 351 64 60 44 85 120 101 34 23 5 344 350 357 3 345 357 354 6 3 2 353 355 345 336 327
349 342 343 349 17 41 53 9 29 37 53 48 42 10 338 294 8 6 8 9 10 322 296 356 20 38 48 29 35 22 49 53 79 43 21 3 20 350 333 333 348 351 356 346 340 346 359 0 3 5 358 356 348 344
346 348 334 346 13 21 59 53 42 54 54 45 8 345 320 304 325 335 337 349 330 302 37 6 52 30 10 61 72 2 50 61 22 7 359 1 326 324 326 332 341 320 4 359 4 359 359 1 357 2 2 358 355 352
8 341 332 349 27 332 77 50 78 80 69 55 346 322 348 334 294 291 302 318 342 38 30 72 138 45 42 26 62 73 74 33 359 334 314 313 307 325 349 349 326 327 340 44 24 9 7 16 9 10 7 5 4 1
344 5 10 27 51 347 29 77 3 78 101 136 189 192 208 132 190 207 244 197 158 151 149 191 72 39 51 43 58 45 37 357 342 312 293 24 16 36 346 321 319 339 45 59 48 20 4 358 8 18 7 16 13 7
350 18 16 20 4 284 70 81 288 175 79 79 288 64 74 77 81 182 172 191 204 192 58 49 46 35 21 23 15 355 3 328 347 1 19 12 23 65 49 342 336 341 61 37 43 27 10 353 8 15 21 18 17 8
324 319 341 353 238 5 12 329 124 11 74 268 327 81 4 83 67 60 17 114 69 42 71 42 23 15 4 2 23 15 18 21 16 9 11 16 22 20 333 304 307 342 64 35 31 33 16 4 15 5 22 28 24 26
322 329 294 243 289 13 206 18 3 62 238 239 88 33 76 89 63 61 57 57 41 32 38 15 29 50 52 10 8 20 17 88 84 338 3 74 42 44 2 359 356 28 33 38 15 37 27 23 20 17 13 11 16 23
323 312 243 238 226 77 245 254 237 193 217 320 166 171 72 64 12 61 58 40 58 156 66 36 9 18 113 239 332 52 73 61 52 31 39 70 28 321 338 44 21 43 44 35 30 27 36 23 15 10 15 3 8 20
316 276 284 275 175 240 173 215 176 119 242 234 237 83 103 130 61 56 55 59 158 273 27 32 36 37 62 62 39 13 357 38 137 15 9 17 348 30 34 32 42 52 38 14 5 12 33 352 7 27 7 15 12 359
271 281 168 275 268 227 203 176 155 168 204 48 306 138 142 105 92 91 96 345 332 14 34 88 54 28 4 2 339 328 37 16 40 30 32 20 16 19 23 29 23 41 24 10 20 10 11 3 359 30 20 3 17 19
305 201 179 248 147 172 136 274 168 157 31 47 61 196 96 224 95 82 71 335 114 27 59 344 12 86 108 311 307 23 45 38 357 18 39 15 29 22 16 39 21 12 22 17 26 5 9 6 4 4 12 25 21 26
257 231 191 221 312 79 332 333 75 79 213 229 190 172 202 196 109 113 119 284 23 355 342 208 183 165 197 29 3 30 18 12 23 1 14 24 34 29 4 40 34 2 351 9 14 20 2 4 4 9 14 26 38 36
278 291 266 217 217 114 242 9 47 181 208 269 308 26 32 27 78 98 112 85 288 292 335 337 249 186 133 314 30 24 3 341 12 16 344 18 38 28 355 358 18 349 222 339 14 13 7 9 354 356 359 16 22 29
233 294 274 210 206 96 150 62 184 257 6 299 279 72 106 93 111 68 96 243 283 338 4 341 338 103 145 122 67 24 21 12 39 30 351 343 10 18 358 356 355 354 1 334 227 57 36 18 13 356 350 20 14 11
312 246 253 249 177 139 174 187 227 51 13 82 107 138 168 156 135 109 37 55 341 333 17 335 334 22 13 33 60 21 20 43 32 23 11 341 335 354 346 348 346 353 357 346 343 350 17 359 4 5 18 24 3 355
289 229 233 178 136 118 145 154 262 151 250 296 24 297 107 86 154 149 116 18 318 327 34 346 334 39 25 18 34 25 353 18 58 24 11 344 338 345 345 332 335 342 344 345 344 358 355 349 7 3 0 8 12 39
263 232 214 147 146 145 143 174 150 226 133 260 256 245 184 197 192 126 109 10 315 333 119 320 339 47 45 342 30 50 6 342 36 13 6 353 346 338 331 326 344 345 351 336 340 349 3 23 21 2 351 357 360 2
199 213 173 151 140 152 189 182 184 181 251 252 266 238 54 44 5 83 110 67 356 322 356 333 335 338 127 49 33 358 345 59 49 68 46 34 18 5 352 355 358 352 353 346 350 340 6 23 10 0 4 353 352 3